| time (UTC) | temp C | wind direction | speed KPH | gust KPH | rain 1hr cm | rain 24hr cm | rain mn cm | humidity % | barometer mb |
| 20260507021031 | 14 | 62 | 0.0 | 3.2 | 0.00 | 1.14 | 0.00 | 92 | 1010.3 |
| 20260507020528 | 14 | 62 | 0.0 | 3.2 | 0.00 | 1.14 | 0.00 | 92 | 1010.2 |
| 20260507020029 | 14 | 62 | 0.0 | 3.2 | 0.00 | 1.14 | 0.00 | 92 | 1010.3 |
| 20260507015527 | 13 | 62 | 0.0 | 3.2 | 0.00 | 1.14 | 0.00 | 92 | 1010.2 |
| 20260507015031 | 13 | 62 | 0.0 | 1.6 | 0.00 | 1.14 | 0.00 | 91 | 1010.2 |
| 20260507014546 | 14 | 62 | 0.0 | 0.0 | 0.00 | 1.14 | 0.00 | 91 | 1010.3 |
| 20260507014031 | 14 | 62 | 0.0 | 1.6 | 0.00 | 1.14 | 0.00 | 91 | 1010.3 |
| 20260507013527 | 14 | 62 | 0.0 | 1.6 | 0.00 | 1.14 | 0.00 | 92 | 1010.2 |
| 20260507013040 | 14 | 62 | 0.0 | 0.0 | 0.00 | 1.14 | 0.00 | 92 | 1010.2 |
| 20260507012528 | 14 | 62 | 0.0 | 3.2 | 0.00 | 1.14 | 0.00 | 92 | 1010.2 |
| 20260507012030 | 14 | 62 | 0.0 | 3.2 | 0.00 | 1.14 | 0.00 | 92 | 1010.3 |
| 20260507011535 | 14 | 62 | 0.0 | 3.2 | 0.00 | 1.14 | 0.00 | 92 | 1010.2 |
| 20260507011025 | 14 | 62 | 0.0 | 3.2 | 0.00 | 1.14 | 0.00 | 92 | 1010.3 |
| 20260507010525 | 14 | 62 | 0.0 | 0.0 | 0.00 | 1.14 | 0.00 | 92 | 1010.3 |
| 20260507010029 | 14 | 62 | 0.0 | 0.0 | 0.00 | 1.14 | 0.00 | 92 | 1010.4 |
| 20260507005524 | 14 | 62 | 0.0 | 0.0 | 0.00 | 1.14 | 0.00 | 92 | 1010.3 |
| 20260507005024 | 14 | 62 | 0.0 | 0.0 | 0.00 | 1.14 | 0.00 | 92 | 1010.4 |
| 20260507004524 | 14 | 62 | 0.0 | 0.0 | 0.00 | 1.14 | 0.00 | 92 | 1010.3 |
| 20260507004025 | 14 | 62 | 0.0 | 0.0 | 0.00 | 1.14 | 0.00 | 92 | 1010.3 |
| 20260507003524 | 14 | 62 | 0.0 | 0.0 | 0.00 | 1.14 | 0.00 | 92 | 1010.3 |
| 20260507003024 | 14 | 62 | 0.0 | 0.0 | 0.00 | 1.14 | 0.00 | 92 | 1010.4 |
| 20260507002523 | 14 | 62 | 0.0 | 0.0 | 0.00 | 1.14 | 0.00 | 92 | 1010.4 |
| 20260507002023 | 14 | 62 | 0.0 | 0.0 | 0.00 | 1.14 | 0.00 | 92 | 1010.3 |
| 20260507001521 | 14 | 62 | 0.0 | 0.0 | 0.00 | 1.14 | 0.00 | 92 | 1010.3 |
| 20260507001022 | 13 | 62 | 0.0 | 0.0 | 0.00 | 1.14 | 0.00 | 91 | 1010.4 |
| 20260507000526 | 13 | 62 | 0.0 | 0.0 | 0.00 | 1.14 | 0.00 | 91 | 1010.4 |
| 20260507000028 | 13 | 62 | 0.0 | 0.0 | 0.00 | 1.14 | 0.00 | 91 | 1010.4 |
| 20260506235522 | 13 | 62 | 0.0 | 0.0 | 0.00 | 1.14 | 0.00 | 91 | 1010.5 |
| 20260506235021 | 13 | 62 | 0.0 | 3.2 | 0.00 | 1.14 | 0.00 | 91 | 1010.4 |
| 20260506234521 | 13 | 62 | 0.0 | 3.2 | 0.00 | 1.14 | 0.00 | 91 | 1010.4 |
| 20260506234022 | 13 | 62 | 0.0 | 0.0 | 0.00 | 1.14 | 0.00 | 91 | 1010.4 |
| 20260506233520 | 13 | 62 | 0.0 | 3.2 | 0.00 | 1.14 | 0.00 | 90 | 1010.4 |
| 20260506233023 | 13 | 62 | 0.0 | 3.2 | 0.00 | 1.14 | 0.00 | 90 | 1010.5 |
| 20260506232522 | 13 | 62 | 0.0 | 3.2 | 0.00 | 1.14 | 0.00 | 90 | 1010.5 |
| 20260506232019 | 13 | 62 | 0.0 | 0.0 | 0.00 | 1.14 | 0.00 | 90 | 1010.5 |
| 20260506231518 | 13 | 62 | 0.0 | 1.6 | 0.00 | 1.14 | 0.00 | 90 | 1010.6 |
| 20260506231018 | 13 | 62 | 0.0 | 3.2 | 0.00 | 1.14 | 0.00 | 90 | 1010.5 |
| 20260506230518 | 13 | 62 | 0.0 | 3.2 | 0.00 | 1.14 | 0.00 | 90 | 1010.4 |
| 20260506230017 | 13 | 62 | 0.0 | 4.8 | 0.00 | 1.14 | 0.00 | 90 | 1010.5 |
| 20260506225521 | 13 | 62 | 0.0 | 4.8 | 0.00 | 1.14 | 0.00 | 90 | 1010.6 |
| 20260506225017 | 13 | 62 | 0.0 | 4.8 | 0.00 | 1.14 | 0.00 | 90 | 1010.6 |
| 20260506224519 | 13 | 62 | 1.6 | 4.8 | 0.00 | 1.14 | 0.00 | 90 | 1010.6 |
| 20260506224016 | 13 | 61 | 0.0 | 3.2 | 0.00 | 1.14 | 0.00 | 90 | 1010.6 |
| 20260506223517 | 14 | 62 | 0.0 | 3.2 | 0.00 | 1.14 | 0.00 | 90 | 1010.6 |
| 20260506223016 | 14 | 61 | 0.0 | 3.2 | 0.00 | 1.14 | 0.00 | 90 | 1010.5 |
| 20260506222517 | 14 | 65 | 0.0 | 4.8 | 0.00 | 1.14 | 0.00 | 90 | 1010.5 |
| 20260506222014 | 14 | 65 | 1.6 | 4.8 | 0.00 | 1.14 | 0.00 | 90 | 1010.5 |
| 20260506221514 | 14 | 65 | 1.6 | 4.8 | 0.00 | 1.14 | 0.00 | 90 | 1010.5 |
| 20260506221016 | 14 | 65 | 0.0 | 3.2 | 0.00 | 1.14 | 0.00 | 90 | 1010.4 |
| 20260506220514 | 14 | 65 | 0.0 | 1.6 | 0.00 | 1.14 | 0.00 | 90 | 1010.4 |
| 20260506220012 | 14 | 65 | 0.0 | 3.2 | 0.00 | 1.14 | 0.00 | 90 | 1010.4 |
| 20260506215517 | 14 | 65 | 0.0 | 6.4 | 0.00 | 1.14 | 1.14 | 90 | 1010.4 |
| 20260506215012 | 14 | 65 | 1.6 | 6.4 | 0.00 | 1.14 | 1.14 | 90 | 1010.4 |
| 20260506214512 | 14 | 74 | 0.0 | 3.2 | 0.00 | 1.14 | 1.14 | 90 | 1010.5 |
| 20260506214011 | 14 | 74 | 0.0 | 3.2 | 0.00 | 1.14 | 1.14 | 90 | 1010.5 |
| 20260506213511 | 14 | 74 | 0.0 | 3.2 | 0.00 | 1.14 | 1.14 | 90 | 1010.5 |
| 20260506213014 | 14 | 74 | 0.0 | 3.2 | 0.00 | 1.14 | 1.14 | 91 | 1010.5 |
| 20260506212512 | 14 | 109 | 0.0 | 3.2 | 0.00 | 1.14 | 1.14 | 91 | 1010.5 |
| 20260506212012 | 14 | 111 | 0.0 | 1.6 | 0.00 | 1.14 | 1.14 | 91 | 1010.5 |
| 20260506211510 | 14 | 111 | 0.0 | 3.2 | 0.00 | 1.14 | 1.14 | 91 | 1010.5 |
| 20260506211011 | 15 | 111 | 0.0 | 3.2 | 0.00 | 1.14 | 1.14 | 91 | 1010.6 |
| 20260506210511 | 15 | 111 | 0.0 | 3.2 | 0.00 | 1.14 | 1.14 | 91 | 1010.6 |
| 20260506210014 | 15 | 69 | 0.0 | 1.6 | 0.00 | 1.14 | 1.14 | 91 | 1010.6 |
| 20260506205511 | 15 | 69 | 0.0 | 3.2 | 0.00 | 1.17 | 1.14 | 91 | 1010.6 |
| 20260506205010 | 15 | 69 | 0.0 | 4.8 | 0.00 | 1.17 | 1.14 | 91 | 1010.6 |
| 20260506204510 | 15 | 72 | 0.0 | 4.8 | 0.00 | 1.17 | 1.14 | 91 | 1010.6 |
| 20260506204010 | 15 | 192 | 0.0 | 3.2 | 0.00 | 1.17 | 1.14 | 91 | 1010.6 |
| 20260506203510 | 15 | 196 | 0.0 | 3.2 | 0.00 | 1.17 | 1.14 | 91 | 1010.6 |
| 20260506203010 | 15 | 196 | 0.0 | 0.0 | 0.00 | 1.17 | 1.14 | 91 | 1010.5 |
| 20260506202510 | 15 | 196 | 0.0 | 0.0 | 0.00 | 1.17 | 1.14 | 91 | 1010.5 |
| 20260506202013 | 15 | 196 | 0.0 | 0.0 | 0.00 | 1.17 | 1.14 | 91 | 1010.4 |
| 20260506201509 | 15 | 196 | 0.0 | 3.2 | 0.00 | 1.17 | 1.14 | 91 | 1010.4 |
| 20260506201010 | 15 | 196 | 0.0 | 3.2 | 0.00 | 1.17 | 1.14 | 91 | 1010.4 |
| 20260506200509 | 15 | 196 | 0.0 | 3.2 | 0.00 | 1.17 | 1.14 | 91 | 1010.3 |
| 20260506200009 | 15 | 196 | 0.0 | 3.2 | 0.00 | 1.17 | 1.14 | 91 | 1010.4 |
| 20260506195509 | 15 | 196 | 0.0 | 0.0 | 0.00 | 1.30 | 1.14 | 91 | 1010.3 |
| 20260506195009 | 15 | 196 | 0.0 | 0.0 | 0.00 | 1.30 | 1.14 | 91 | 1010.3 |
| 20260506194511 | 15 | 196 | 0.0 | 0.0 | 0.00 | 1.30 | 1.14 | 91 | 1010.2 |
| 20260506194009 | 15 | 196 | 0.0 | 0.0 | 0.00 | 1.30 | 1.14 | 91 | 1010.1 |
| 20260506193509 | 15 | 196 | 0.0 | 0.0 | 0.00 | 1.30 | 1.14 | 91 | 1010.0 |
| 20260506193008 | 15 | 196 | 0.0 | 1.6 | 0.00 | 1.30 | 1.14 | 91 | 1010.0 |
| 20260506192509 | 15 | 196 | 0.0 | 1.6 | 0.00 | 1.30 | 1.14 | 91 | 1009.9 |
| 20260506192008 | 15 | 196 | 0.0 | 3.2 | 0.00 | 1.30 | 1.14 | 91 | 1009.9 |
| 20260506191508 | 15 | 196 | 0.0 | 3.2 | 0.00 | 1.30 | 1.14 | 91 | 1009.9 |
| 20260506191008 | 16 | 196 | 0.0 | 4.8 | 0.00 | 1.30 | 1.14 | 91 | 1009.8 |
| 20260506190509 | 16 | 196 | 0.0 | 4.8 | 0.00 | 1.30 | 1.14 | 91 | 1009.7 |
| 20260506190008 | 15 | 196 | 0.0 | 4.8 | 0.00 | 1.30 | 1.14 | 91 | 1009.6 |
| 20260506185508 | 15 | 182 | 0.0 | 3.2 | 0.00 | 1.35 | 1.14 | 91 | 1009.5 |
| 20260506185007 | 16 | 180 | 0.0 | 3.2 | 0.00 | 1.35 | 1.14 | 91 | 1009.5 |
| 20260506184507 | 16 | 180 | 0.0 | 3.2 | 0.00 | 1.35 | 1.14 | 91 | 1009.4 |
| 20260506184007 | 15 | 180 | 0.0 | 3.2 | 0.00 | 1.35 | 1.14 | 91 | 1009.5 |
| 20260506183507 | 16 | 167 | 0.0 | 3.2 | 0.00 | 1.35 | 1.14 | 91 | 1009.5 |
| 20260506183007 | 16 | 167 | 0.0 | 3.2 | 0.00 | 1.35 | 1.14 | 91 | 1009.5 |
| 20260506182507 | 15 | 167 | 0.0 | 0.0 | 0.00 | 1.35 | 1.14 | 91 | 1009.5 |
| 20260506182010 | 15 | 167 | 0.0 | 0.0 | 0.00 | 1.35 | 1.14 | 91 | 1009.4 |
| 20260506181506 | 15 | 167 | 0.0 | 0.0 | 0.00 | 1.35 | 1.14 | 90 | 1009.4 |
| 20260506181007 | 15 | 167 | 0.0 | 0.0 | 0.00 | 1.35 | 1.14 | 90 | 1009.4 |
| 20260506180510 | 15 | 167 | 0.0 | 0.0 | 0.00 | 1.35 | 1.14 | 90 | 1009.4 |
| 20260506180006 | 15 | 167 | 0.0 | 0.0 | 0.00 | 1.35 | 1.14 | 90 | 1009.5 |
| 20260506175507 | 15 | 167 | 0.0 | 0.0 | 0.00 | 1.37 | 1.14 | 90 | 1009.5 |
| 20260506175006 | 15 | 167 | 0.0 | 0.0 | 0.00 | 1.37 | 1.14 | 90 | 1009.5 |
| 20260506174505 | 15 | 167 | 0.0 | 3.2 | 0.00 | 1.37 | 1.14 | 90 | 1009.4 |
| 20260506174008 | 15 | 167 | 0.0 | 3.2 | 0.00 | 1.37 | 1.14 | 90 | 1009.5 |
| 20260506173506 | 15 | 167 | 0.0 | 3.2 | 0.00 | 1.37 | 1.14 | 90 | 1009.4 |
| 20260506173005 | 15 | 167 | 0.0 | 3.2 | 0.00 | 1.37 | 1.14 | 90 | 1009.4 |
| 20260506172505 | 15 | 167 | 0.0 | 3.2 | 0.00 | 1.37 | 1.14 | 90 | 1009.4 |
| 20260506172007 | 15 | 167 | 0.0 | 3.2 | 0.00 | 1.37 | 1.14 | 90 | 1009.3 |
| 20260506171505 | 15 | 167 | 0.0 | 3.2 | 0.00 | 1.37 | 1.14 | 90 | 1009.2 |
| 20260506171007 | 15 | 167 | 0.0 | 4.8 | 0.00 | 1.37 | 1.14 | 90 | 1009.1 |
| 20260506170504 | 15 | 167 | 0.0 | 4.8 | 0.03 | 1.37 | 1.14 | 90 | 1009.0 |
| 20260506170006 | 15 | 215 | 0.0 | 4.8 | 0.05 | 1.37 | 1.14 | 90 | 1009.1 |
| 20260506165504 | 15 | 215 | 0.0 | 4.8 | 0.05 | 1.45 | 1.14 | 90 | 1009.2 |
| 20260506165004 | 15 | 215 | 0.0 | 4.8 | 0.05 | 1.45 | 1.14 | 90 | 1009.2 |
| 20260506164504 | 15 | 215 | 0.0 | 6.4 | 0.08 | 1.45 | 1.14 | 89 | 1009.2 |
| 20260506164004 | 15 | 215 | 1.6 | 6.4 | 0.13 | 1.45 | 1.14 | 89 | 1009.2 |
| 20260506163503 | 15 | 240 | 0.0 | 3.2 | 0.15 | 1.45 | 1.14 | 89 | 1009.2 |
| 20260506163010 | 15 | 267 | 0.0 | 4.8 | 0.18 | 1.45 | 1.14 | 89 | 1009.3 |
| 20260506162503 | 15 | 200 | 1.6 | 6.4 | 0.23 | 1.45 | 1.14 | 89 | 1009.3 |
| 20260506162007 | 15 | 219 | 0.0 | 6.4 | 0.30 | 1.45 | 1.14 | 89 | 1009.2 |
| 20260506161507 | 15 | 180 | 3.2 | 9.7 | 0.38 | 1.45 | 1.14 | 89 | 1009.2 |
| 20260506161003 | 15 | 189 | 1.6 | 12.9 | 0.43 | 1.45 | 1.14 | 89 | 1009.2 |
| 20260506160502 | 15 | 179 | 3.2 | 16.1 | 0.46 | 1.42 | 1.12 | 88 | 1009.1 |
| 20260506160005 | 15 | 218 | 4.8 | 16.1 | 0.48 | 1.42 | 1.09 | 88 | 1009.2 |
| 20260506155504 | 15 | 232 | 6.4 | 17.7 | 0.51 | 1.55 | 1.09 | 89 | 1009.1 |
| 20260506155002 | 15 | 252 | 6.4 | 17.7 | 0.51 | 1.55 | 1.09 | 89 | 1009.2 |
| 20260506154502 | 15 | 163 | 3.2 | 14.5 | 0.51 | 1.52 | 1.07 | 89 | 1009.1 |
| 20260506154002 | 15 | 173 | 4.8 | 16.1 | 0.46 | 1.45 | 1.02 | 88 | 1009.0 |
| 20260506153502 | 16 | 204 | 6.4 | 16.1 | 0.43 | 1.42 | 0.99 | 89 | 1009.2 |
| 20260506153001 | 16 | 184 | 0.0 | 6.4 | 0.41 | 1.42 | 0.97 | 89 | 1009.1 |
| 20260506152501 | 16 | 192 | 1.6 | 6.4 | 0.33 | 1.37 | 0.89 | 89 | 1009.1 |
| 20260506152004 | 16 | 199 | 0.0 | 8.0 | 0.25 | 1.27 | 0.81 | 88 | 1009.2 |
| 20260506151600 | 16 | 213 | 1.6 | 8.0 | 0.20 | 1.22 | 0.76 | 88 | 1009.3 |
| 20260506151100 | 16 | 188 | 1.6 | 8.0 | 0.15 | 1.17 | 0.71 | 88 | 1009.3 |
| 20260506150600 | 16 | 183 | 1.6 | 9.7 | 0.10 | 1.12 | 0.66 | 87 | 1009.3 |
| 20260506150105 | 16 | 223 | 3.2 | 11.3 | 0.05 | 1.09 | 0.61 | 86 | 1009.3 |
| 20260506145602 | 16 | 232 | 1.6 | 11.3 | 0.03 | 1.17 | 0.58 | 86 | 1009.3 |
| 20260506145059 | 16 | 209 | 1.6 | 9.7 | 0.00 | 1.17 | 0.56 | 86 | 1009.2 |
| 20260506144601 | 16 | 230 | 1.6 | 6.4 | 0.00 | 1.17 | 0.56 | 85 | 1009.1 |
| 20260506144100 | 17 | 219 | 0.0 | 6.4 | 0.00 | 1.17 | 0.56 | 85 | 1009.2 |
| 20260506143600 | 17 | 156 | 1.6 | 6.4 | 0.00 | 1.17 | 0.56 | 86 | 1009.2 |
| 20260506143059 | 17 | 237 | 0.0 | 4.8 | 0.00 | 1.17 | 0.56 | 85 | 1009.2 |
| 20260506142558 | 17 | 142 | 0.0 | 6.4 | 0.00 | 1.17 | 0.56 | 85 | 1009.3 |
| 20260506142057 | 17 | 167 | 0.0 | 6.4 | 0.00 | 1.17 | 0.56 | 85 | 1009.4 |
| 20260506141557 | 17 | 83 | 1.6 | 9.7 | 0.00 | 1.17 | 0.56 | 85 | 1009.4 |
| 20260506141056 | 17 | 65 | 0.0 | 9.7 | 0.03 | 1.17 | 0.56 | 85 | 1009.6 |
| 20260506140559 | 17 | 46 | 3.2 | 9.7 | 0.05 | 1.17 | 0.56 | 84 | 1009.6 |
| 20260506140056 | 17 | 311 | 0.0 | 4.8 | 0.08 | 1.17 | 0.56 | 86 | 1009.6 |
| 20260506135554 | 16 | 209 | 0.0 | 12.9 | 0.23 | 1.32 | 0.56 | 85 | 1009.7 |
| 20260506135055 | 16 | 200 | 3.2 | 12.9 | 0.30 | 1.32 | 0.56 | 85 | 1009.8 |
| 20260506134616 | 16 | 202 | 3.2 | 12.9 | 0.30 | 1.32 | 0.56 | 85 | 1009.8 |
| 20260506134057 | 16 | 190 | 3.2 | 12.9 | 0.30 | 1.32 | 0.56 | 86 | 1009.8 |
| 20260506133555 | 16 | 181 | 3.2 | 11.3 | 0.30 | 1.32 | 0.56 | 87 | 1009.8 |
| 20260506133053 | 16 | 196 | 3.2 | 9.7 | 0.30 | 1.32 | 0.56 | 88 | 1009.8 |
| 20260506132552 | 16 | 327 | 3.2 | 11.3 | 0.30 | 1.32 | 0.56 | 88 | 1009.8 |
| 20260506132051 | 16 | 226 | 1.6 | 9.7 | 0.30 | 1.32 | 0.56 | 88 | 1010.0 |
| 20260506131503 | 16 | 225 | 3.2 | 9.7 | 0.30 | 1.32 | 0.56 | 88 | 1010.0 |
| 20260506131003 | 16 | 244 | 3.2 | 16.1 | 0.30 | 1.32 | 0.56 | 88 | 1010.1 |
| 20260506130502 | 16 | 206 | 4.8 | 14.5 | 0.28 | 1.30 | 0.53 | 87 | 1010.1 |
| 20260506130002 | 16 | 200 | 6.4 | 14.5 | 0.23 | 1.27 | 0.51 | 86 | 1010.2 |
| 20260506125502 | 16 | 214 | 3.2 | 9.7 | 0.15 | 1.19 | 0.41 | 85 | 1010.2 |
| 20260506125001 | 17 | 203 | 4.8 | 8.0 | 0.03 | 1.09 | 0.28 | 84 | 1010.1 |
| 20260506124501 | 17 | 255 | 4.8 | 9.7 | 0.00 | 1.07 | 0.25 | 84 | 1010.0 |
| 20260506124002 | 17 | 234 | 3.2 | 14.5 | 0.00 | 1.07 | 0.25 | 84 | 1010.0 |
| 20260506123603 | 17 | 225 | 4.8 | 14.5 | 0.00 | 1.07 | 0.25 | 83 | 1010.1 |
| 20260506123100 | 17 | 242 | 4.8 | 9.7 | 0.03 | 1.07 | 0.25 | 84 | 1010.1 |
| 20260506122600 | 17 | 218 | 3.2 | 14.5 | 0.03 | 1.07 | 0.25 | 85 | 1010.1 |
| 20260506122100 | 17 | 205 | 4.8 | 14.5 | 0.03 | 1.07 | 0.25 | 84 | 1010.0 |
| 20260506121608 | 17 | 194 | 3.2 | 11.3 | 0.03 | 1.07 | 0.25 | 86 | 1010.0 |
| 20260506121058 | 16 | 201 | 3.2 | 11.3 | 0.05 | 1.07 | 0.25 | 86 | 1010.0 |
| 20260506120558 | 16 | 217 | 3.2 | 12.9 | 0.05 | 1.07 | 0.25 | 86 | 1010.0 |
| 20260506115557 | 16 | 211 | 3.2 | 12.9 | 0.05 | 1.09 | 0.25 | 87 | 1010.0 |
| 20260506115055 | 16 | 208 | 3.2 | 12.9 | 0.05 | 1.09 | 0.25 | 87 | 1010.1 |
| 20260506114556 | 16 | 200 | 4.8 | 12.9 | 0.05 | 1.09 | 0.25 | 87 | 1010.2 |
| 20260506114055 | 16 | 227 | 3.2 | 11.3 | 0.05 | 1.09 | 0.25 | 88 | 1010.1 |
| 20260506113555 | 16 | 178 | 4.8 | 11.3 | 0.05 | 1.09 | 0.25 | 88 | 1010.1 |
| 20260506113055 | 16 | 199 | 3.2 | 12.9 | 0.05 | 1.07 | 0.23 | 88 | 1010.1 |
| 20260506112555 | 16 | 208 | 3.2 | 9.7 | 0.05 | 1.07 | 0.23 | 88 | 1010.1 |
| 20260506112055 | 16 | 206 | 3.2 | 11.3 | 0.05 | 1.07 | 0.23 | 88 | 1010.1 |
| 20260506111611 | 16 | 236 | 3.2 | 12.9 | 0.03 | 1.04 | 0.23 | 88 | 1010.1 |
| 20260506111054 | 16 | 177 | 4.8 | 12.9 | 0.03 | 1.04 | 0.23 | 88 | 1010.1 |
| 20260506110554 | 16 | 195 | 3.2 | 11.3 | 0.05 | 1.04 | 0.23 | 88 | 1010.1 |
| 20260506110054 | 16 | 198 | 1.6 | 12.9 | 0.05 | 1.04 | 0.23 | 88 | 1010.2 |
| 20260506105553 | 16 | 208 | 3.2 | 12.9 | 0.05 | 1.07 | 0.23 | 87 | 1010.2 |
| 20260506105053 | 16 | 209 | 3.2 | 16.1 | 0.08 | 1.07 | 0.23 | 87 | 1010.3 |
| 20260506104553 | 16 | 205 | 3.2 | 16.1 | 0.08 | 1.07 | 0.23 | 88 | 1010.3 |
| 20260506104055 | 16 | 233 | 3.2 | 11.3 | 0.10 | 1.07 | 0.23 | 88 | 1010.3 |
| 20260506103551 | 16 | 205 | 1.6 | 9.7 | 0.08 | 1.04 | 0.20 | 88 | 1010.4 |
| 20260506103051 | 16 | 194 | 3.2 | 9.7 | 0.10 | 1.04 | 0.20 | 88 | 1010.4 |
| 20260506102551 | 16 | 142 | 0.0 | 8.0 | 0.13 | 1.04 | 0.20 | 88 | 1010.3 |
| 20260506102053 | 16 | 205 | 3.2 | 8.0 | 0.13 | 1.04 | 0.20 | 88 | 1010.4 |
| 20260506101550 | 16 | 217 | 0.0 | 4.8 | 0.15 | 1.04 | 0.20 | 88 | 1010.5 |
| 20260506101049 | 16 | 200 | 0.0 | 9.7 | 0.15 | 1.04 | 0.20 | 88 | 1010.6 |
| 20260506100549 | 16 | 256 | 1.6 | 9.7 | 0.13 | 1.02 | 0.18 | 89 | 1010.6 |
| 20260506100049 | 16 | 230 | 0.0 | 9.7 | 0.10 | 0.99 | 0.15 | 88 | 1010.8 |
| 20260506095548 | 16 | 205 | 0.0 | 9.7 | 0.10 | 0.99 | 0.15 | 88 | 1010.8 |
| 20260506095049 | 16 | 52 | 0.0 | 4.8 | 0.08 | 0.99 | 0.15 | 88 | 1010.8 |
| 20260506094549 | 16 | 82 | 0.0 | 8.0 | 0.08 | 0.99 | 0.15 | 88 | 1010.8 |
| 20260506094049 | 16 | 140 | 0.0 | 8.0 | 0.05 | 0.97 | 0.13 | 88 | 1010.8 |
| 20260506093552 | 16 | 26 | 0.0 | 4.8 | 0.05 | 0.94 | 0.10 | 87 | 1010.8 |
| 20260506093053 | 16 | 175 | 0.0 | 6.4 | 0.05 | 0.94 | 0.10 | 87 | 1010.8 |
| 20260506092550 | 16 | 155 | 0.0 | 6.4 | 0.03 | 0.91 | 0.08 | 87 | 1010.8 |
| 20260506092051 | 16 | 209 | 0.0 | 6.4 | 0.03 | 0.91 | 0.08 | 87 | 1010.7 |
| 20260506091548 | 16 | 217 | 0.0 | 8.0 | 0.00 | 0.89 | 0.05 | 86 | 1010.7 |
| 20260506091046 | 16 | 192 | 1.6 | 8.0 | 0.00 | 0.89 | 0.05 | 87 | 1010.7 |
| 20260506090548 | 16 | 178 | 0.0 | 4.8 | 0.00 | 0.89 | 0.05 | 88 | 1010.7 |
| 20260506090045 | 16 | 159 | 0.0 | 3.2 | 0.00 | 0.89 | 0.05 | 89 | 1010.6 |
| 20260506085544 | 16 | 75 | 0.0 | 8.0 | 0.00 | 0.89 | 0.05 | 89 | 1010.6 |
| 20260506085043 | 16 | 35 | 1.6 | 8.0 | 0.00 | 0.89 | 0.05 | 89 | 1010.6 |
| 20260506084543 | 16 | 92 | 0.0 | 6.4 | 0.00 | 0.89 | 0.05 | 89 | 1010.5 |
| 20260506084043 | 15 | 74 | 0.0 | 6.4 | 0.00 | 0.89 | 0.05 | 89 | 1010.5 |
| 20260506083543 | 15 | 69 | 0.0 | 6.4 | 0.00 | 0.89 | 0.05 | 88 | 1010.5 |
| 20260506083055 | 15 | 105 | 0.0 | 4.8 | 0.03 | 0.89 | 0.05 | 89 | 1010.5 |
| 20260506082541 | 15 | 138 | 0.0 | 4.8 | 0.03 | 0.89 | 0.05 | 89 | 1010.4 |
| 20260506082041 | 15 | 193 | 0.0 | 4.8 | 0.03 | 0.89 | 0.05 | 90 | 1010.4 |
| 20260506081547 | 15 | 80 | 0.0 | 6.4 | 0.03 | 0.89 | 0.05 | 91 | 1010.4 |
| 20260506081039 | 15 | 83 | 1.6 | 6.4 | 0.03 | 0.89 | 0.05 | 90 | 1010.3 |
| 20260506080540 | 15 | 88 | 1.6 | 6.4 | 0.03 | 0.89 | 0.05 | 90 | 1010.3 |
| 20260506073034 | 15 | 76 | 3.2 | 9.7 | 0.00 | 0.89 | 0.05 | 90 | 1010.5 |
| 20260506072532 | 15 | 28 | 3.2 | 9.7 | 0.00 | 0.89 | 0.05 | 90 | 1010.6 |
| 20260506072033 | 15 | 63 | 4.8 | 9.7 | 0.00 | 0.89 | 0.05 | 90 | 1010.6 |
| 20260506071534 | 15 | 80 | 3.2 | 9.7 | 0.00 | 0.89 | 0.05 | 90 | 1010.6 |
| 20260506071031 | 15 | 36 | 3.2 | 6.4 | 0.03 | 0.89 | 0.05 | 90 | 1010.6 |
| 20260506070531 | 15 | 55 | 3.2 | 8.0 | 0.03 | 0.89 | 0.05 | 90 | 1010.6 |
| 20260506062026 | 14 | 49 | 1.6 | 6.4 | 0.05 | 0.89 | 0.05 | 90 | 1010.7 |
| 20260506061535 | 14 | 46 | 3.2 | 4.8 | 0.05 | 0.89 | 0.05 | 90 | 1010.6 |
| 20260506061026 | 14 | 42 | 0.0 | 4.8 | 0.03 | 0.86 | 0.03 | 90 | 1010.6 |
| 20260506060526 | 14 | 42 | 1.6 | 4.8 | 0.03 | 0.86 | 0.03 | 90 | 1010.7 |
| 20260506051024 | 13 | 19 | 0.0 | 6.4 | 0.00 | 0.84 | 0.00 | 91 | 1010.7 |
| 20260506050519 | 13 | 19 | 1.6 | 6.4 | 0.00 | 0.84 | 0.00 | 91 | 1010.6 |
| 20260506045019 | 13 | 17 | 1.6 | 4.8 | 0.00 | 0.84 | 0.00 | 91 | 1010.7 |
| 20260506044520 | 13 | 19 | 3.2 | 4.8 | 0.00 | 0.84 | 0.00 | 91 | 1010.7 |
| 20260506044022 | 13 | 16 | 1.6 | 4.8 | 0.00 | 0.84 | 0.00 | 91 | 1010.7 |
| 20260506043517 | 13 | 42 | 0.0 | 4.8 | 0.00 | 0.84 | 0.00 | 91 | 1010.6 |
| 20260506043017 | 13 | 25 | 0.0 | 3.2 | 0.00 | 0.84 | 0.00 | 91 | 1010.6 |
| 20260506042517 | 13 | 22 | 0.0 | 3.2 | 0.00 | 0.84 | 0.00 | 91 | 1010.7 |
| 20260506042017 | 13 | 22 | 0.0 | 3.2 | 0.00 | 0.84 | 0.00 | 91 | 1010.7 |
| 20260506041516 | 13 | 22 | 0.0 | 4.8 | 0.00 | 0.84 | 0.00 | 91 | 1010.7 |
| 20260506041014 | 13 | 22 | 1.6 | 4.8 | 0.00 | 0.84 | 0.00 | 91 | 1010.6 |
| 20260506040519 | 13 | 32 | 1.6 | 3.2 | 0.00 | 0.84 | 0.00 | 91 | 1010.6 |
| 20260506040016 | 13 | 60 | 0.0 | 3.2 | 0.00 | 0.84 | 0.00 | 91 | 1010.7 |
| 20260506035512 | 13 | 60 | 0.0 | 3.2 | 0.00 | 0.84 | 0.00 | 91 | 1010.9 |
| 20260506035012 | 13 | 60 | 0.0 | 3.2 | 0.00 | 0.84 | 0.00 | 91 | 1011.0 |
| 20260506034511 | 13 | 60 | 0.0 | 3.2 | 0.00 | 0.84 | 0.00 | 91 | 1011.0 |
| 20260506034011 | 13 | 60 | 0.0 | 3.2 | 0.00 | 0.84 | 0.00 | 91 | 1010.9 |
| 20260506033510 | 13 | 60 | 0.0 | 3.2 | 0.00 | 0.84 | 0.00 | 91 | 1010.9 |
| 20260506033015 | 13 | 60 | 0.0 | 3.2 | 0.00 | 0.84 | 0.00 | 91 | 1011.0 |
| 20260506032510 | 13 | 60 | 0.0 | 3.2 | 0.00 | 0.84 | 0.00 | 91 | 1011.0 |
| 20260506032010 | 13 | 60 | 0.0 | 3.2 | 0.00 | 0.84 | 0.00 | 91 | 1011.0 |
| 20260506031510 | 13 | 60 | 0.0 | 3.2 | 0.00 | 0.84 | 0.00 | 91 | 1011.1 |
| 20260506031009 | 13 | 60 | 0.0 | 3.2 | 0.00 | 0.84 | 0.00 | 91 | 1011.1 |
| 20260506030507 | 13 | 61 | 0.0 | 4.8 | 0.00 | 0.84 | 0.00 | 91 | 1011.2 |
| 20260506030007 | 13 | 65 | 1.6 | 4.8 | 0.00 | 0.84 | 0.00 | 91 | 1011.2 |
| 20260506025509 | 13 | 38 | 0.0 | 4.8 | 0.00 | 0.84 | 0.00 | 91 | 1011.2 |
| 20260506025007 | 13 | 38 | 0.0 | 4.8 | 0.00 | 0.84 | 0.00 | 91 | 1011.2 |
| 20260506024520 | 13 | 35 | 0.0 | 4.8 | 0.00 | 0.84 | 0.00 | 91 | 1011.3 |
| 20260506024006 | 13 | 24 | 0.0 | 3.2 | 0.00 | 0.84 | 0.00 | 91 | 1011.3 |
| 20260506023506 | 13 | 24 | 0.0 | 3.2 | 0.00 | 0.84 | 0.00 | 91 | 1011.3 |
| 20260506023006 | 13 | 24 | 0.0 | 3.2 | 0.00 | 0.84 | 0.00 | 91 | 1011.5 |
| 20260506022505 | 13 | 24 | 0.0 | 3.2 | 0.00 | 0.84 | 0.00 | 91 | 1011.5 |
| 20260506022008 | 13 | 24 | 0.0 | 3.2 | 0.00 | 0.84 | 0.00 | 91 | 1011.5 |
| 20260506021509 | 13 | 24 | 0.0 | 3.2 | 0.00 | 0.84 | 0.00 | 91 | 1011.5 |